Waarnemingen

Advertentie
Mijn weer
Ajaccio, Frankrijk (7761): temperatuur & dauwpunt: 10.12.2017 02:00:00 - 16.12.2017 02:00:00 (CET)Ajaccio, Frankrijk (7761): temperatuur 5cm: 10.12.2017 02:00:00 - 16.12.2017 02:00:00 (CET)Ajaccio, Frankrijk (7761): temperatuur -20cm & temperatuur -100cm: 10.12.2017 02:00:00 - 16.12.2017 02:00:00 (CET)Ajaccio, Frankrijk (7761): windsnelheid & windstoten: 10.12.2017 02:00:00 - 16.12.2017 02:00:00 (CET)Ajaccio, Frankrijk (7761): windrichting: 10.12.2017 02:00:00 - 16.12.2017 02:00:00 (CET)Ajaccio, Frankrijk (7761): luchtdruk: 10.12.2017 02:00:00 - 16.12.2017 02:00:00 (CET)Ajaccio, Frankrijk (7761): zicht: 10.12.2017 02:00:00 - 16.12.2017 02:00:00 (CET)Ajaccio, Frankrijk (7761): Zonneschijnduur: 10.12.2017 02:00:00 - 16.12.2017 02:00:00 (CET)Ajaccio, Frankrijk (7761): neerslag: 10.12.2017 02:00:00 - 16.12.2017 02:00:00 (CET)
Datum & Tijd tt [°C] td [°C] tt 5cm [°C] tt -20cm [°C] tt -100cm [°C] ff [km/u] ff [kn] fx [km/u] fx [kn] dd ppp [hPa] vv [km] sd [min] rr [mm]
16.12.2017 02:00:00 8,9 6,2 7,1 11,5 13,6 8 4 40 21 - 1005,7 10 0 0,2
16.12.2017 01:00:00 11,0 4,0 8,4 11,5 13,6 4 2 26 14 - 1005,5 10 0 0,0
16.12.2017 00:00:00 11,4 5,0 8,0 11,6 13,6 13 7 32 18 W 1005,9 10 0 0,0
15.12.2017 23:00:00 11,5 4,9 7,1 11,6 13,6 15 8 28 15 WNW 1005,7 10 0 0,0
15.12.2017 22:00:00 9,7 5,5 6,8 11,7 13,6 6 3 18 10 OZO 1005,1 19 0 0,0
15.12.2017 21:00:00 8,8 6,6 7,1 11,7 13,6 4 2 16 9 - 1004,6 10 0 0,0
15.12.2017 20:00:00 9,6 7,0 7,7 11,7 13,6 2 1 19 11 - 1004,2 10 0 0,0
15.12.2017 19:00:00 11,0 6,5 8,8 11,7 13,6 18 10 34 18 W 1003,5 18 0 0,0
15.12.2017 18:00:00 11,0 8,2 8,8 11,7 13,6 13 7 29 16 W 1002,5 10 0 0,0
15.12.2017 17:00:00 10,7 8,1 9,2 11,6 13,6 2 1 14 8 - 1001,8 10 0 0,0
15.12.2017 16:00:00 11,1 9,5 10,4 11,6 13,6 3 1 17 9 N 1001,8 43 0 1,0
15.12.2017 15:00:00 11,4 10,1 10,6 11,6 13,6 6 3 9 5 OZO 1001,7 4,5 0 1,6
15.12.2017 14:00:00 11,5 9,4 10,6 11,6 13,6 5 3 13 7 - 1001,5 10 0 0,2
15.12.2017 13:00:00 11,5 10,1 10,5 11,5 13,6 8 4 27 15 O 1001,9 10 0 2,6
15.12.2017 12:00:00 11,6 9,7 11,0 11,5 13,6 11 6 31 17 NNW 1002,7 10 0 0,0
15.12.2017 11:00:00 12,0 11,4 11,4 11,5 13,6 9 5 16 8 NNW 1003,7 7 0 2,2
15.12.2017 10:00:00 11,8 11,0 11,2 11,5 13,6 9 5 16 8 NO 1004,3 8 0 1,2
15.12.2017 09:00:00 11,6 11,1 11,1 11,5 13,6 8 4 12 7 ONO 1005,0 9 0 1,0
15.12.2017 08:00:00 11,8 11,3 11,0 11,5 13,8 5 3 12 7 NO 1005,9 5 0 11,2
15.12.2017 07:00:00 11,6 11,1 10,6 11,6 13,8 4 2 13 7 - 1006,6 3,4 0 6,4
15.12.2017 06:00:00 11,2 10,6 10,5 11,6 13,8 9 5 13 7 NNO 1006,8 3,2 0 3,5
15.12.2017 05:00:00 11,1 10,5 10,4 11,6 13,8 4 2 13 7 - 1007,6 10 0 1,2
15.12.2017 04:00:00 11,2 10,6 10,4 11,7 13,8 8 4 14 8 NNO 1008,6 8 0 2,4
15.12.2017 03:00:00 11,1 10,0 10,4 11,6 13,8 8 4 16 9 ONO 1009,4 10 0 0,0
15.12.2017 02:00:00 10,9 10,0 10,2 11,6 13,8 8 4 14 7 NO 1009,9 10 0 0,0
15.12.2017 01:00:00 10,8 9,9 9,5 11,6 13,8 9 5 16 8 NO 1010,6 10 0 0,0
15.12.2017 00:00:00 11,2 10,1 10,3 11,6 13,8 8 4 12 6 NO 1011,7 10 0 0,0
14.12.2017 23:00:00 11,5 10,1 10,6 11,6 13,8 8 4 10 6 NNO 1012,0 10 0 0,0
14.12.2017 22:00:00 11,4 10,3 10,6 11,6 13,8 6 3 12 7 NO 1012,4 27 0 0,0
14.12.2017 21:00:00 11,5 10,4 10,7 11,5 13,8 9 5 14 8 NNO 1012,7 10 0 0,2
14.12.2017 20:00:00 11,9 10,3 10,9 11,5 13,8 8 4 15 8 NNO 1013,3 10 0 0,2
14.12.2017 19:00:00 12,4 10,5 11,3 11,5 13,8 5 3 9 5 OZO 1013,7 9 0 0,0
14.12.2017 18:00:00 13,1 10,8 12,2 11,4 13,8 8 4 10 6 ONO 1013,7 10 0 0,0
14.12.2017 17:00:00 13,6 11,1 12,7 11,3 13,8 4 2 6 3 O 1014,0 16 0 0,0
14.12.2017 16:00:00 14,1 11,1 13,8 11,3 13,8 0 0 9 5 N 1014,1 7 0 0,0
14.12.2017 15:00:00 14,6 11,2 14,4 11,2 13,8 8 4 20 11 ZZW 1014,0 9 0 0,0
14.12.2017 14:00:00 14,6 10,6 14,3 11,1 13,8 15 8 22 12 WZW 1014,8 10 0 0,0
14.12.2017 13:00:00 14,7 11,5 14,2 11,0 13,8 11 6 17 9 WZW 1015,6 9 0 0,0
14.12.2017 12:00:00 14,7 11,1 14,3 11,0 13,8 13 7 23 12 W 1016,2 7 0 0,0
14.12.2017 11:00:00 14,7 10,5 13,9 11,0 13,8 15 8 35 19 W 1016,6 10 0 0,0
14.12.2017 10:00:00 14,6 11,0 13,8 10,9 13,8 26 14 40 22 W 1016,7 10 0 0,0
14.12.2017 09:00:00 14,5 11,3 12,9 10,9 13,8 21 11 37 20 ZW 1016,1 10 0 0,0
14.12.2017 08:00:00 14,3 10,9 12,5 10,9 13,8 22 12 43 23 ZW 1016,1 10 0 0,2
14.12.2017 07:00:00 14,2 10,2 12,8 10,9 13,8 34 18 46 25 ZW 1016,1 10 0 0,0
14.12.2017 06:00:00 13,9 9,9 12,5 10,9 13,8 28 15 39 21 ZW 1016,4 10 0 0,0
14.12.2017 05:00:00 13,9 9,7 12,1 10,9 13,8 24 13 34 19 WZW 1016,8 10 0 0,0
14.12.2017 04:00:00 13,6 8,0 10,9 10,9 13,8 26 14 38 21 W 1017,5 15 0 0,0
14.12.2017 03:00:00 12,0 9,2 8,1 11,0 13,7 9 5 21 12 WNW 1018,1 10 0 0,0
14.12.2017 02:00:00 8,7 7,6 7,7 11,1 13,8 8 4 16 9 NNO 1018,9 10 0 0,0
14.12.2017 01:00:00 8,4 7,2 7,6 11,1 13,7 11 6 16 9 NNO 1019,6 10 0 0,0
14.12.2017 00:00:00 8,3 7,2 7,4 11,2 13,8 9 5 18 10 NO 1020,2 10 0 0,0
13.12.2017 23:00:00 8,0 6,8 6,5 11,2 13,8 10 6 16 9 NO 1020,6 36 0 0,2
13.12.2017 22:00:00 7,7 6,3 6,5 11,3 13,8 9 5 15 8 NO 1021,3 10 0 0,0
13.12.2017 21:00:00 8,2 6,7 7,0 11,3 13,7 9 5 14 7 NO 1021,4 10 0 0,4
13.12.2017 20:00:00 8,6 6,6 6,8 11,3 13,8 11 6 19 10 NNO 1021,4 7 0 1,6
13.12.2017 19:00:00 9,0 4,8 7,4 11,3 13,7 11 6 17 9 NO 1021,7 10 0 0,0
13.12.2017 18:00:00 10,4 4,5 8,4 11,3 13,7 5 3 17 9 - 1021,8 10 0 0,0
13.12.2017 17:00:00 11,3 4,3 9,5 11,2 13,7 8 4 27 15 NW 1021,7 10 3 0,0
13.12.2017 16:00:00 12,3 3,0 11,2 11,1 13,7 16 9 31 17 W 1021,6 10 53 0,0
13.12.2017 15:00:00 13,1 3,5 13,5 11,0 13,7 18 10 27 15 W 1021,2 10 60 0,0
13.12.2017 14:00:00 13,4 2,9 15,2 11,0 13,7 19 10 34 18 NW 1021,3 20 60 0,0
13.12.2017 13:00:00 13,8 3,5 15,0 11,0 13,7 16 8 26 14 WNW 1021,5 56 47 0,0
13.12.2017 12:00:00 13,8 5,2 17,2 11,0 13,7 4 2 13 7 - 1021,7 10 58 0,0
13.12.2017 11:00:00 11,6 6,1 12,3 11,1 13,7 4 2 14 8 - 1022,2 10 58 0,0
13.12.2017 10:00:00 8,9 6,7 7,4 11,2 13,7 9 5 18 10 NO 1021,8 10 60 0,0
13.12.2017 09:00:00 6,3 5,6 4,4 11,3 13,7 12 6 18 10 NO 1021,3 38 17 0,0
13.12.2017 08:00:00 5,4 4,7 4,2 11,4 13,7 11 6 15 8 NO 1020,8 41 0 0,0
13.12.2017 07:00:00 6,5 5,9 4,9 11,4 13,7 5 3 12 7 - 1020,1 10 0 0,0
13.12.2017 06:00:00 6,7 6,0 5,4 11,5 13,7 8 4 14 7 N 1019,4 10 0 0,0
13.12.2017 05:00:00 7,3 6,6 6,3 11,6 13,7 8 4 11 6 NO 1019,0 10 0 0,0
13.12.2017 04:00:00 7,9 6,8 6,5 11,6 13,7 5 3 11 6 NNO 1019,0 10 0 0,0
13.12.2017 03:00:00 8,6 7,2 7,4 11,6 13,7 6 3 10 5 ONO 1019,0 46 0 0,0
13.12.2017 02:00:00 8,9 7,8 8,2 11,6 13,6 5 3 11 6 O 1018,6 10 0 0,2
13.12.2017 01:00:00 9,1 7,9 8,2 11,7 13,7 5 3 9 5 NO 1018,3 10 0 0,0
13.12.2017 00:00:00 9,3 8,2 8,2 11,7 13,6 4 2 9 5 NO 1018,0 8 0 0,0
12.12.2017 23:00:00 9,6 8,5 8,7 11,7 13,7 5 3 11 6 N 1017,5 10 0 0,0
12.12.2017 22:00:00 9,9 9,0 9,1 11,8 13,7 4 2 7 4 O 1017,3 13 0 0,0
12.12.2017 21:00:00 10,1 9,0 9,3 11,8 13,7 5 3 17 9 NNO 1017,1 10 0 0,0
12.12.2017 20:00:00 10,2 9,3 9,5 11,8 13,7 11 6 20 11 O 1016,3 10 0 3,1
12.12.2017 19:00:00 10,7 9,6 9,6 11,8 13,7 4 2 8 4 N 1016,3 6 0 3,0
12.12.2017 18:00:00 11,1 10,0 10,2 11,7 13,7 5 3 8 5 - 1015,0 7 0 1,8
12.12.2017 17:00:00 11,6 9,5 10,3 11,7 13,6 2 1 8 4 NO 1014,5 17 0 0,2
12.12.2017 16:00:00 12,0 9,4 11,0 11,7 13,6 5 3 9 5 - 1013,7 10 0 0,0
12.12.2017 15:00:00 12,2 9,6 11,5 11,7 13,7 3 1 15 8 NO 1013,0 60 0 0,0
12.12.2017 14:00:00 12,6 10,5 11,6 11,7 13,6 8 4 13 7 O 1012,4 9 0 1,0
12.12.2017 13:00:00 12,9 10,3 11,9 11,7 13,7 5 3 14 8 - 1012,4 10 0 0,0
12.12.2017 12:00:00 12,3 9,8 11,6 11,7 13,6 5 3 14 7 NO 1012,6 10 0 0,0
12.12.2017 11:00:00 11,9 10,3 11,0 11,7 13,6 9 5 13 7 NNO 1012,6 10 0 0,0
12.12.2017 10:00:00 11,7 9,9 10,7 11,7 13,6 9 5 13 7 NNO 1012,2 10 0 0,0
12.12.2017 09:00:00 11,6 10,0 10,5 11,7 13,6 8 4 13 7 NO 1011,0 10 0 0,0
12.12.2017 08:00:00 11,5 10,2 10,5 11,7 13,6 9 5 16 9 NNO 1010,2 10 0 0,0
12.12.2017 07:00:00 11,7 10,1 10,7 11,7 13,6 8 4 13 7 O 1009,6 10 0 0,0
12.12.2017 06:00:00 11,9 10,8 10,8 11,7 13,6 4 2 10 5 - 1008,7 10 0 0,0
12.12.2017 05:00:00 12,2 10,6 11,1 11,7 13,6 4 2 14 8 ONO 1007,6 46 0 0,0
12.12.2017 04:00:00 12,2 11,1 11,3 11,7 13,6 9 5 16 9 O 1007,5 10 0 0,2
12.12.2017 03:00:00 12,4 11,5 11,5 11,6 13,6 5 3 10 5 O 1007,3 10 0 1,0
12.12.2017 02:00:00 12,9 11,3 11,8 11,6 13,6 2 1 27 15 - 1006,4 4,7 0 2,9
12.12.2017 01:00:00 13,6 11,3 12,3 11,5 13,6 23 12 35 19 W 1005,7 4,8 0 2,0
12.12.2017 00:00:00 15,2 13,4 13,8 11,5 13,6 16 9 60 33 WZW 1004,5 5 0 0,6
11.12.2017 23:00:00 16,3 12,6 13,6 11,4 13,6 41 22 65 35 ZZW 1003,2 3,5 0 1,2
11.12.2017 22:00:00 18,4 10,0 17,5 11,4 13,6 35 19 60 32 Z 1002,2 10 0 0,0
11.12.2017 21:00:00 19,1 8,1 18,1 11,3 13,6 39 21 61 33 Z 1001,7 10 0 0,0
11.12.2017 20:00:00 19,2 6,6 18,1 11,3 13,6 34 18 61 33 Z 1001,1 10 0 0,0
11.12.2017 19:00:00 19,1 6,6 17,9 11,2 13,6 35 19 62 34 Z 1000,7 10 0 0,0
11.12.2017 18:00:00 18,7 7,5 17,5 11,2 13,6 31 17 69 37 Z 1000,3 10 0 0,0
11.12.2017 17:00:00 18,4 8,1 17,3 11,1 13,6 34 18 63 34 Z 1000,1 10 0 0,0
11.12.2017 16:00:00 18,1 8,4 16,8 11,0 13,6 31 17 64 34 Z 1000,5 10 0 0,0
11.12.2017 15:00:00 17,6 9,7 16,6 11,0 13,6 35 19 56 30 Z 1000,7 15 0 0,0
11.12.2017 14:00:00 17,3 11,1 16,7 10,9 13,6 34 18 67 36 Z 1000,8 15 0 0,0
11.12.2017 13:00:00 17,5 10,4 16,6 10,8 13,6 37 20 68 37 Z 1001,0 10 0 0,0
11.12.2017 12:00:00 17,3 10,9 16,4 10,8 13,6 39 21 66 35 Z 1001,3 10 0 0,0
11.12.2017 11:00:00 17,2 11,0 16,0 10,7 13,7 39 21 72 39 Z 1001,7 10 0 0,0
11.12.2017 10:00:00 16,5 11,6 15,8 10,6 13,6 31 17 51 28 Z 1001,9 10 0 0,0
11.12.2017 09:00:00 16,4 11,5 15,5 10,5 13,7 29 16 55 30 Z 1001,8 15 0 0,0
11.12.2017 08:00:00 16,2 11,6 13,3 10,5 13,7 35 19 61 33 Z 1002,1 15 0 0,0
11.12.2017 07:00:00 15,7 11,9 13,6 10,4 13,7 31 17 58 32 Z 1001,7 10 0 0,0
11.12.2017 06:00:00 16,1 11,9 15,1 10,3 13,7 29 16 58 31 Z 1002,2 10 0 0,0
11.12.2017 05:00:00 16,0 12,0 14,0 10,2 13,7 34 18 63 34 Z 1002,4 10 0 0,0
11.12.2017 04:00:00 15,8 13,1 14,0 10,0 13,7 34 18 50 27 Z 1003,5 9 0 0,2
11.12.2017 03:00:00 15,8 13,3 15,1 9,9 13,7 28 15 50 27 Z 1004,6 9 0 0,0
11.12.2017 02:00:00 15,8 13,1 14,9 9,8 13,7 31 17 48 26 Z 1004,7 10 0 0,0
11.12.2017 01:00:00 15,7 13,2 14,9 9,7 13,7 29 16 48 26 Z 1005,3 9 0 0,0
11.12.2017 00:00:00 15,7 13,7 14,3 9,5 13,7 29 16 48 26 ZZW 1006,5 7 0 0,0
10.12.2017 23:00:00 15,8 13,5 14,5 9,4 13,7 28 15 50 27 Z 1006,7 8 0 0,0
10.12.2017 22:00:00 15,8 13,8 14,3 9,3 13,7 35 19 58 31 ZZW 1007,1 7 0 0,0
10.12.2017 21:00:00 15,7 13,9 14,6 9,1 13,8 31 17 48 26 ZZW 1007,4 8 0 0,0
10.12.2017 20:00:00 15,5 13,5 14,0 9,0 13,8 29 16 50 27 Z 1008,0 9 0 0,0
10.12.2017 19:00:00 15,1 13,3 13,5 8,8 13,8 28 15 54 29 Z 1008,3 9 0 0,4
10.12.2017 18:00:00 15,1 13,3 14,0 8,7 13,8 28 15 52 28 Z 1008,6 10 0 0,0
10.12.2017 17:00:00 15,3 13,3 13,7 8,6 13,8 35 19 64 35 ZZW 1009,2 10 0 0,0
10.12.2017 16:00:00 14,9 12,8 13,2 8,5 13,8 44 24 67 36 ZZW 1009,6 10 0 0,0
10.12.2017 15:00:00 14,3 12,7 12,5 8,5 13,9 42 23 63 34 ZZW 1010,0 8 0 0,2
10.12.2017 14:00:00 13,0 12,5 8,0 8,4 13,9 31 17 45 25 Z 1011,0 6 0 5,0
10.12.2017 13:00:00 8,3 7,7 7,2 8,6 13,9 9 5 17 9 NO 1013,1 1,5 0 8,5
10.12.2017 12:00:00 7,5 6,8 6,6 8,7 13,9 13 7 18 10 NO 1014,3 4,0 0 1,0
10.12.2017 11:00:00 7,0 6,1 5,9 8,7 13,9 9 5 14 8 N 1015,6 6 0 0,2
10.12.2017 10:00:00 6,3 5,3 5,0 8,8 13,9 9 5 16 9 NNO 1016,5 8 0 0,2
10.12.2017 09:00:00 5,6 4,2 4,1 8,8 13,9 8 4 16 8 NNO 1017,3 8 0 0,4
10.12.2017 08:00:00 5,1 3,1 3,7 8,9 13,9 11 6 18 10 NNO 1017,5 10 0 0,4
10.12.2017 07:00:00 5,6 1,1 3,2 9,0 13,9 11 6 23 12 NO 1017,6 10 0 0,0
10.12.2017 06:00:00 4,2 0,3 2,8 9,1 13,9 10 5 18 10 NO 1017,9 46 0 0,0
10.12.2017 05:00:00 3,7 -1,1 2,1 9,2 13,9 9 5 21 11 NO 1018,2 10 0 0,0
10.12.2017 04:00:00 2,4 -1,6 1,1 9,3 13,9 9 5 23 12 NNO 1018,8 10 0 0,0
10.12.2017 03:00:00 1,8 -2,2 0,4 9,4 13,9 11 6 19 10 NO 1019,3 10 0 0,0
10.12.2017 02:00:00 2,5 -2,6 1,0 9,5 13,9 13 7 21 11 NNO 1019,4 10 0 0,0

tt = temperatuur
td = dauwpunt
tt 5cm = temperatuur 5cm
tt -20cm = temperatuur -20cm
tt -100cm = temperatuur -100cm
ff = windsnelheid
fx = windstoten
dd = windrichting
ppp = luchtdruk
vv = zicht
sd = Zonneschijnduur
rr = neerslag

Weerstations in de omgeving